Regional Weather Roundup
Issued by NWS Newport/Morehead, NC

Current Version | Previous Version | Graphics & Text | Print | Product List | Glossary Off
Versions: 1 2 3 4 5 6 7 8 9 10 11 12 13 14 15 16 17 18 19 20 21 22 23 24 25 26 27 28 29 30 31 32 33 34 35 36 37 38 39 40 41 42 43 44 45 46 47 48 49 50

000
ASUS42 KMHX 210225
RWRMHX
WEATHER ROUNDUP FOR EASTERN NORTH CAROLINA
NATIONAL WEATHER SERVICE NEWPORT/MOREHEAD CITY NC
900 PM EST TUE FEB 20 2018

NOTE: "FAIR" INDICATES FEW OR NO CLOUDS BELOW 12,000 FEET
WITH NO SIGNIFICANT WEATHER AND/OR OBSTRUCTIONS TO VISIBILITY

NCZ015>017-031-032-045>047-102-103-210300-
NORTH COAST

CITY           SKY/WX    TMP DP  RH WIND       PRES   REMARKS
EDENTON        FAIR      67  64  90 S9        30.46S
ELIZABETH CITY FAIR      67  65  93 S8        30.45R
KITTY HAWK     FAIR     N/A N/A N/A S5        30.46R
MANTEO         FAIR      60  60  98 S7        30.48R

$$

NCZ045>047-081-094-103-104-210300-
CENTRAL COAST

CITY           SKY/WX    TMP DP  RH WIND       PRES   REMARKS
FRISCO         MOCLDY    65  64  97 S7        30.48R

$$

NCZ095-097-098-100-101-210300-
SOUTHERN COAST

CITY           SKY/WX    TMP DP  RH WIND       PRES   REMARKS
BEAUFORT       CLOUDY    67  64  90 S8        30.47S
CEDAR ISLAND   NOT AVBL
JACKSONVILLE   MOCLDY    68  67  96 S3        30.46R
PINEY ISLAND   NOT AVBL
WILMINGTON     FAIR      67  65  93 S3        30.46R


$$

NCZ011>013-027>030-043-044-078>080-089-090>093-098-210300-
COASTAL PLAIN

CITY           SKY/WX    TMP DP  RH WIND       PRES   REMARKS
AHOSKIE        FAIR      65  64  99 S7        30.44R
CLINTON        FAIR      68  65  90 S5        30.45R
ELIZABETHTOWN  NOT AVBL
GOLDSBORO      FAIR      69  64  86 S5        30.43R
GREENVILLE     FAIR      68  64  88 S10       30.45S
HAVELOCK       MOCLDY    70  67  90 S7        30.48R
KENANSVILLE    FAIR      66  64  94 S3        30.46R
KINSTON        FAIR      68  64  88 S9        30.46R
NEW BERN       MOCLDY    67  66  97 S7        30.47S
RICHLANDS      FAIR      66  65  96 S6        30.47R
ROCKY MOUNT    FAIR      67  62  84 S7        30.44R
WASHINGTON     MOCLDY    67  64  92 S3        30.47R
WHITEVILLE     FAIR      66  64  91 CALM      30.45R

$$

AMZ130-135-150-152-154-156-158-170-250-252-270-ANZ085-086-088-633-658-670-210300-
MARINE OBSERVATIONS

STATION/POSITION TIME  TEMP    WIND        PRES    WAVE   SWELL
                       AIR SEA DIR/SP/G            HT/PER HT/PER
                 (UTC) (F)     (DEG/KT/KT) (MB)    (FT/S) (FT/S)
CHESAPEAKE LIGHT NOT AVBL
64 E VA BEACH    0150   58 52  190/ 14/ 14 1031.9    4/11   3/11
DUCK             0200   65 46  190/ 14/ 17 1030.9
2 E DUCK         0200      45                N/A     3/12   2/12
OREGON INLET     0200   60 57  170/  8/ 10 1032.0
13E OREGON INLT  0148      47                N/A     4/11   3/11
HATTERAS CG      0200   65 58  190/  4/  8 1032.1
DIAMOND BUOY     0210   72 72  180/ 16/ 19 1032.6
CAPE LOOKOUT     0100          150/  9/ 10 1032.1
BEAUFORT LAB     0200   64 57  170/  8/ 10 1032.0
30 SE NEW RVR IN 0108   71 69  170/ 12/ 16 1031.6
30 SE NEW RVR IN 0200      69                N/A     4/ 6   2/12
27 SE WRIGHTSVLE 0108   70 69  170/  8/ 12 1031.5
5 SE WRIGHTSVLE  0208   61 57  180/  6/  8 1031.2
225 S CAPE HAT   0150   72 74  110/ 14/ 16 1032.8    5/12   3/12
41 SE CHARLESTON 0210   71 69  140/  6/ 10 1030.5

$$



USA.gov is the U.S. government's official web portal to all federal, state and local government web resources and services.